Location: Blackpool
(53.8200°N, 3.0410°W)
Time: 13:20:30
(UTC+00:00)

Envisat - Visible Passes

Search period start: 14 December 2017 00:00
Search period end: 24 December 2017 00:00
Orbit: 764 x 766 km, 98.2° (Epoch: 14 December)

Date Brightness Start Highest point End Pass type
(mag) Time Alt. Az. Time Alt. Az. Time Alt. Az.
14 Dec 4.7 18:24:12 17° NNE 18:24:12 17° NNE 18:25:43 10° N visible
14 Dec 5.4 20:04:24 15° NNW 20:04:24 15° NNW 20:05:16 10° NNW visible
15 Dec 4.8 17:47:02 14° NNE 17:47:02 14° NNE 17:48:17 10° NNE visible
15 Dec 5.0 19:27:14 18° N 19:27:14 18° N 19:28:33 10° NNW visible
16 Dec 5.8 07:21:49 10° NE 07:24:52 16° E 07:27:54 10° ESE visible
16 Dec 4.8 18:50:05 19° N 18:50:05 19° N 18:51:36 10° N visible
16 Dec 5.7 20:30:17 12° NNW 20:30:17 12° NNW 20:30:43 10° NNW visible
17 Dec 4.7 18:12:54 17° NNE 18:12:54 17° NNE 18:14:26 10° N visible
17 Dec 5.2 19:53:07 16° NNW 19:53:07 16° NNW 19:54:10 10° NNW visible
18 Dec 4.9 17:35:44 13° NNE 17:35:44 13° NNE 17:36:50 10° NNE visible
18 Dec 4.9 19:15:56 19° N 19:15:56 19° N 19:17:23 10° N visible
19 Dec 5.9 07:11:17 10° ENE 07:13:34 13° E 07:15:50 10° ESE visible
19 Dec 4.7 18:38:45 19° N 18:38:45 19° N 18:40:23 10° N visible
19 Dec 5.5 20:18:57 14° NNW 20:18:57 14° NNW 20:19:41 10° NNW visible
20 Dec 4.7 18:01:34 16° NNE 18:01:34 16° NNE 18:03:07 10° N visible
20 Dec 5.1 19:41:46 18° NNW 19:41:46 18° NNW 19:43:03 10° NNW visible
21 Dec 5.6 07:35:47 10° NE 07:39:34 20° E 07:43:18 10° SE visible
21 Dec 4.9 17:24:23 11° NNE 17:24:23 11° NNE 17:25:13 10° NNE visible
21 Dec 4.8 19:04:35 20° N 19:04:35 20° N 19:06:12 10° N visible
21 Dec 5.8 20:44:47 11° NNW 20:44:47 11° NNW 20:45:01 10° NNW visible
22 Dec 6.2 07:01:24 10° ENE 07:02:15 10° E 07:03:06 10° E visible
22 Dec 4.6 18:27:23 19° NNE 18:27:23 19° NNE 18:29:08 10° N visible
22 Dec 5.3 20:07:35 16° NNW 20:07:35 16° NNW 20:08:36 10° NNW visible
23 Dec 4.7 17:50:11 15° NNE 17:50:11 15° NNE 17:51:45 10° NNE visible
23 Dec 4.9 19:30:23 20° NNW 19:30:23 20° NNW 19:31:54 10° NNW visible
